GALAXY 30 (WAAS/PRN 135)

Last updated on Thu Jul 03 2025 00:03:25 GMT+0000 (Coordinated Universal Time)

1 46114U 20056C 25183.50183656 .00000044 00000+0 00000+0 0 9998 2 46114 0.0125 60.9283 0002042 39.3206 236.1866 1.00273688 17785
UTC large
Height (km)
Speed (km/s)
/
Latitude / Longitude
Inclination (degrees)
Orbital Period (minutes)
Azimuth
Elevation
Range (km)
Doppler Factor

Next 0 passes for location: London (51.5072 / 0.1276)

Sorry there are no passes over London.